Location: Krasnoyarskiy Pitomnik
(51.1333°N, 71.6167°E)
Time: 10:36:23
(UTC+00:00)

Altair - Pass Details

Date: 21 April 2024
Orbit: 1502 x 1682 km, 47.2° (Epoch: 23 May)

Event Time Altitude Azimuth Distance (km) Brightness Sun altitude
Rises 17:13:53 0° 270° (W) 4,889 10.6 -21.7°
Reaches altitude 10° 17:17:05 10° 269° (W) 3,882 10.0 -21.9°
Maximum altitude 17:26:53 70° 188° (S) 1,686 7.4 -22.7°
Enters shadow 17:33:12 24° 112° (ESE) 2,806 8.4 -23.1°
